Location: Unspecified
(0.0000°N, 0.0000°E)
Time: 00:27:36
(UTC+00:00)

Vanguard 1 Rocket - Pass Details

Date: 10 December 2017
Orbit: 652 x 4225 km, 34.3° (Epoch: 20 July)

Event Time Altitude Azimuth Distance (km) Brightness Sun altitude
Rises 14:00:04 0° 234° (SW) 3,045 10.7 51.5°
Reaches altitude 10° 14:02:03 10° 235° (SW) 2,241 10.3 51.1°
Maximum altitude 14:07:02 87° 322° (NW) 960 8.5 50.1°
Drops below altitude 10° 14:15:29 10° 53° (NE) 3,706 10.2 48.4°
Sets 14:19:41 0° 53° (NE) 5,243 10.9 47.6°
